Date,TemperatureHighF,TemperatureAvgF,TemperatureLowF,DewpointHighF,DewpointAvgF,DewpointLowF,HumidityHigh,HumidityAvg,HumidityLow,PressureMaxIn,PressureMinIn,WindSpeedMaxMPH,WindSpeedAvgMPH,GustSpeedMaxMPH,PrecipitationSumIn
2013-1-1,32.0,28.3,28.1,24.2,24.0,23.6,84,83,71,30.04,29.79,0,0,0,0.00
2013-1-2,28.5,28.3,28.1,24.2,24.0,23.6,84,83,83,30.04,30.02,0,0,0,0.00
2013-1-3,28.5,28.3,28.1,24.2,24.0,23.6,84,83,83,30.04,30.02,0,0,0,0.00
2013-1-4,37.0,30.8,24.7,24.4,23.0,19.1,84,73,58,30.04,29.85,0,0,0,0.00
2013-1-5,39.8,31.8,23.2,24.3,21.2,17.5,81,65,46,30.29,29.89,0,0,0,0.00
2013-1-6,41.2,31.6,23.3,29.4,25.4,18.2,91,78,60,30.26,29.97,22,2,22,0.00
2013-1-7,38.3,31.3,21.1,28.9,20.2,15.2,82,64,46,30.42,29.99,16,1,16,0.00
2013-1-8,29.0,27.9,23.4,18.3,18.0,16.6,76,66,62,30.40,30.39,5,0,5,0.00
2013-1-9,43.2,35.3,26.8,35.8,26.2,17.6,94,70,55,30.41,30.03,1,0,1,0.00
2013-1-10,44.7,39.2,29.6,28.8,25.1,22.9,76,57,45,30.55,30.09,30,2,30,0.00
2013-1-11,37.4,32.0,24.8,34.6,27.5,21.5,95,83,68,30.55,30.23,1,0,1,0.13
2013-1-12,40.1,37.4,34.8,39.1,36.3,33.7,97,96,95,30.25,30.14,1,0,1,0.04
2013-1-13,49.9,44.7,39.0,48.5,43.6,38.1,97,96,93,30.17,30.01,17,1,17,0.01
2013-1-14,57.4,48.7,38.4,51.2,41.3,28.3,96,77,42,30.27,29.87,20,4,20,0.00
2013-1-15,38.9,35.1,30.9,29.6,26.4,24.2,83,71,58,30.34,30.23,10,0,10,0.00
2013-1-16,32.3,31.5,28.4,27.2,26.4,24.7,94,81,75,30.29,30.12,3,0,3,0.00
2013-1-17,39.3,33.8,28.0,32.1,25.7,15.1,91,73,55,30.29,29.96,1,0,3,0.34
2013-1-18,27.9,20.9,16.5,15.4,4.1,-2.9,62,48,32,30.48,30.07,1,0,1,0.00
2013-1-19,45.2,27.2,17.3,26.1,14.7,5.5,69,59,45,30.45,30.03,0,0,0,0.02
2013-1-20,18.0,17.6,17.3,6.9,6.4,5.8,61,61,60,30.43,30.42,0,0,0,0.00
2013-1-21,26.7,21.2,17.3,19.6,11.0,5.8,92,66,44,30.43,29.82,0,0,0,0.00
2013-1-22,21.6,17.9,10.3,19.0,6.6,-3.3,93,63,36,30.12,29.78,0,0,0,0.00
2013-1-23,14.3,8.9,4.8,3.3,-5.0,-9.1,76,53,39,30.19,30.10,11,0,11,0.00
2013-1-24,18.6,9.3,1.3,-4.6,-7.3,-9.1,64,47,30,30.28,30.12,21,1,21,0.00
2013-1-25,21.3,14.2,5.9,12.4,-3.8,-8.8,87,45,30,30.35,30.09,16,3,17,0.00
2013-1-26,22.5,14.6,6.9,12.8,3.5,-6.9,90,64,34,30.29,30.05,20,2,21,0.00
2013-1-27,29.2,19.1,10.8,5.4,2.8,0.1,69,50,31,30.51,30.29,20,3,20,0.00
2013-1-28,29.4,23.2,16.7,24.3,13.7,2.7,94,69,41,30.49,30.04,12,1,12,0.00
2013-1-29,32.4,28.6,24.0,31.4,27.1,22.5,96,94,92,30.22,30.04,4,0,4,0.14
2013-1-30,57.9,47.3,32.3,55.9,46.1,31.0,100,95,92,30.17,29.44,28,4,28,0.20
2013-1-31,59.7,46.1,29.4,57.9,36.8,-99.9,94,72,42,29.60,28.98,39,1,39,0.63